Weather in Messina

Italy     38°10′43″N   15°32′57″E
temp.,
°C
wind,
m/s
gust,
m/s
humid.,
%
clouds,
%
prec.,
mm/h
press.,
hPa
HPBL,
m
28 september, tue
tue2823:00+22nnw1278100 0.2 1017124
02:00+22nw2381100 0.2 1017155
05:00+22nnw1280100 0.0 1016120
08:00+22se027897 0.1 1016221
11:00+24wnw56754 0.3 1017820
14:00+25wnw45680 0.3 1017792
17:00+24wnw45730 0.0 1016672
20:00+22w23860 0.1 1017235
29 september, wed
wed2923:00+21wsw23850 0.3 1018177
02:00+21wsw22865 0.7 1018163
05:00+21w2388100 0.3 1017245
08:00+22w348541 0.9 1018308
11:00+24wnw347521 1.0 1019698
14:00+23wnw457654 2.1 1018803
17:00+23nw347727 0.7 1018758
20:00+21wnw34855 0.8 1019351
30 september, thu
thu3023:00+20wnw34869 0.2 1019345
02:00+20wnw34887 0.3 1019270
05:00+20wnw358820 0.8 1018390
08:00+21wnw238320 1.1 1019380
11:00+23wnw34695 0.2 1019855
14:00+24wnw446421 0.4 10181049
17:00+23nw346622 0.4 1018744
20:00+21nw24755 0.4 1019408
1 october, fri
fri123:00+20nw347525 0.0 1019434
02:00+20nw347730 0.1 1018422
05:00+20nw247733 0.1 1018403
08:00+20nw237435 0.3 1018640
11:00+22nnw226413 0.0 1019977
14:00+23nw33600 0.1 1018897
17:00+22nnw22638 0.0 1018797
20:00+19wnw11750 0.0 1018230
2 october, sat
sat223:00+19ssw11780 0.0 1019247
02:00+18ssw11790 0.0 1018238
05:00+18ssw11780 0.0 1017250
08:00+19sw11760 0.2 1017174
11:00+22wnw33640 0.1 1017925
14:00+23nw43610 0.2 1017975
17:00+22nw33640 0.0 1017825
20:00+19w11750 0.0 1017288